Time,TemperatureF,DewpointF,PressureIn,WindDirection,WindDirectionDegrees,WindSpeedMPH,WindSpeedGustMPH,Humidity,HourlyPrecipIn,Conditions,Clouds,dailyrainin,SoftwareType,DateUTC
2013-01-27 00:02:00,49.5,41.9,30.00,South,180,0.2,2.2,75,0.00,,,0.00,WUHU216HW,2013-01-27 07:02:00,
2013-01-27 00:07:00,49.3,41.7,30.00,WNW,293,0.0,0.9,75,0.00,,,0.00,WUHU216HW,2013-01-27 07:07:00,
2013-01-27 00:13:00,49.0,41.3,30.00,SW,225,0.4,1.3,75,0.00,,,0.00,WUHU216HW,2013-01-27 07:13:00,
2013-01-27 00:18:00,48.6,41.3,30.00,SSE,158,0.0,1.3,76,0.00,,,0.00,WUHU216HW,2013-01-27 07:18:00,
2013-01-27 00:23:00,48.6,41.0,30.00,SE,135,1.1,1.1,75,0.00,,,0.00,WUHU216HW,2013-01-27 07:23:00,
2013-01-27 00:28:00,48.2,41.0,29.99,South,180,2.5,2.5,76,0.00,,,0.00,WUHU216HW,2013-01-27 07:28:00,
2013-01-27 00:33:00,48.2,41.6,29.99,South,180,3.1,3.1,78,0.00,,,0.00,WUHU216HW,2013-01-27 07:33:00,
2013-01-27 00:38:00,48.2,41.6,29.99,SE,135,2.5,3.1,78,0.00,,,0.00,WUHU216HW,2013-01-27 07:38:00,
2013-01-27 00:43:00,48.4,41.8,29.99,SSE,158,2.7,3.1,78,0.00,,,0.00,WUHU216HW,2013-01-27 07:43:00,
2013-01-27 00:48:00,48.4,41.8,29.99,WSW,248,1.3,3.1,78,0.00,,,0.00,WUHU216HW,2013-01-27 07:48:00,
2013-01-27 00:53:00,48.4,41.8,29.99,SSW,203,1.1,1.8,78,0.00,,,0.00,WUHU216HW,2013-01-27 07:53:00,
2013-01-27 00:58:00,48.2,41.6,29.99,SSW,203,0.4,1.3,78,0.00,,,0.00,WUHU216HW,2013-01-27 07:58:00,
2013-01-27 01:03:00,48.2,41.6,29.99,ENE,68,0.0,1.6,78,0.00,,,0.00,WUHU216HW,2013-01-27 08:03:00,
2013-01-27 01:08:00,48.1,41.5,29.99,NNE,23,0.2,1.6,78,0.00,,,0.00,WUHU216HW,2013-01-27 08:08:00,
2013-01-27 01:13:00,47.9,41.3,30.00,WSW,248,0.2,0.4,78,0.00,,,0.00,WUHU216HW,2013-01-27 08:13:00,
2013-01-27 01:18:00,47.7,41.1,30.00,West,270,0.9,1.1,78,0.00,,,0.00,WUHU216HW,2013-01-27 08:18:00,
2013-01-27 01:23:00,47.5,41.3,29.99,North,0,0.4,1.1,79,0.00,,,0.00,WUHU216HW,2013-01-27 08:23:00,
2013-01-27 01:28:00,47.5,41.3,29.99,West,270,0.4,0.9,79,0.00,,,0.00,WUHU216HW,2013-01-27 08:28:00,
2013-01-27 01:33:00,47.5,41.7,29.99,SE,135,2.0,3.4,80,0.00,,,0.00,WUHU216HW,2013-01-27 08:33:00,
2013-01-27 01:38:00,47.7,41.9,29.99,South,180,2.5,4.0,80,0.00,,,0.00,WUHU216HW,2013-01-27 08:38:00,
2013-01-27 01:43:00,47.9,41.9,29.99,SSW,203,2.7,4.0,80,0.00,,,0.00,WUHU216HW,2013-01-27 08:43:00,
2013-01-27 01:48:00,48.2,42.3,30.00,SSW,203,1.8,4.9,80,0.00,,,0.00,WUHU216HW,2013-01-27 08:48:00,
2013-01-27 01:53:00,48.4,42.9,29.99,SSW,203,4.5,4.9,81,0.00,,,0.00,WUHU216HW,2013-01-27 08:53:00,
2013-01-27 01:58:00,48.6,43.3,30.00,South,180,6.3,6.3,82,0.00,,,0.00,WUHU216HW,2013-01-27 08:58:00,
2013-01-27 02:03:00,49.0,43.7,30.00,SE,135,3.6,6.5,82,0.00,,,0.00,WUHU216HW,2013-01-27 09:03:00,
2013-01-27 02:08:00,49.0,43.7,30.00,South,180,4.5,6.5,82,0.00,,,0.00,WUHU216HW,2013-01-27 09:08:00,
2013-01-27 02:13:00,49.1,43.8,30.00,SSW,203,4.0,5.6,82,0.00,,,0.00,WUHU216HW,2013-01-27 09:13:00,
2013-01-27 02:18:00,49.3,43.7,30.00,SSW,203,4.7,5.4,81,0.00,,,0.00,WUHU216HW,2013-01-27 09:18:00,
2013-01-27 02:23:00,49.3,43.7,30.00,SSE,158,2.9,5.4,81,0.00,,,0.00,WUHU216HW,2013-01-27 09:23:00,
2013-01-27 02:28:00,49.5,43.8,30.00,SSW,203,3.6,5.4,81,0.00,,,0.00,WUHU216HW,2013-01-27 09:28:00,
2013-01-27 02:33:00,49.5,43.8,30.00,SSE,158,2.7,3.8,81,0.00,,,0.00,WUHU216HW,2013-01-27 09:33:00,
2013-01-27 02:38:00,49.7,44.0,30.00,SE,135,0.9,3.4,81,0.00,,,0.00,WUHU216HW,2013-01-27 09:38:00,
2013-01-27 02:43:00,49.7,43.7,30.00,North,0,0.7,2.5,80,0.00,,,0.00,WUHU216HW,2013-01-27 09:43:00,
2013-01-27 02:48:00,49.1,43.2,29.99,North,0,1.1,1.1,80,0.00,,,0.00,WUHU216HW,2013-01-27 09:48:00,
2013-01-27 02:53:00,48.8,42.5,30.00,SSW,203,0.4,1.1,79,0.00,,,0.00,WUHU216HW,2013-01-27 09:53:00,
2013-01-27 02:58:00,48.6,42.7,30.00,South,180,0.0,0.9,80,0.00,,,0.00,WUHU216HW,2013-01-27 09:58:00,
2013-01-27 03:03:00,48.4,42.5,30.00,WSW,248,1.1,1.1,80,0.00,,,0.00,WUHU216HW,2013-01-27 10:03:00,
2013-01-27 03:08:00,48.2,42.3,30.00,West,270,0.4,1.1,80,0.00,,,0.00,WUHU216HW,2013-01-27 10:08:00,
2013-01-27 03:13:00,48.4,42.5,30.00,West,270,1.1,1.6,80,0.00,,,0.00,WUHU216HW,2013-01-27 10:13:00,
2013-01-27 03:18:00,48.4,42.9,30.00,SSW,203,0.7,2.2,81,0.00,,,0.00,WUHU216HW,2013-01-27 10:18:00,
2013-01-27 03:23:00,48.4,42.9,30.00,South,180,1.8,2.2,81,0.00,,,0.00,WUHU216HW,2013-01-27 10:23:00,
2013-01-27 03:28:00,48.4,42.9,30.00,SW,225,5.1,5.1,81,0.00,,,0.00,WUHU216HW,2013-01-27 10:28:00,
2013-01-27 03:33:00,48.6,43.0,30.00,SW,225,2.5,5.1,81,0.00,,,0.00,WUHU216HW,2013-01-27 10:33:00,
2013-01-27 03:38:00,48.6,43.3,29.99,SW,225,0.4,4.7,82,0.00,,,0.00,WUHU216HW,2013-01-27 10:38:00,
2013-01-27 03:43:00,48.6,43.3,30.00,SW,225,0.9,2.2,82,0.00,,,0.00,WUHU216HW,2013-01-27 10:43:00,
2013-01-27 03:48:00,48.6,43.3,30.00,SW,225,0.9,2.2,82,0.00,,,0.00,WUHU216HW,2013-01-27 10:48:00,
2013-01-27 03:53:00,48.6,43.3,30.00,SSW,203,0.4,1.8,82,0.00,,,0.00,WUHU216HW,2013-01-27 10:53:00,
2013-01-27 03:58:00,48.6,43.0,30.00,SW,225,0.0,1.8,81,0.00,,,0.00,WUHU216HW,2013-01-27 10:58:00,
2013-01-27 04:03:00,48.6,43.3,29.99,North,0,0.4,0.4,82,0.00,,,0.00,WUHU216HW,2013-01-27 11:03:00,
2013-01-27 04:08:00,48.6,43.0,29.99,North,0,0.0,0.4,81,0.00,,,0.00,WUHU216HW,2013-01-27 11:08:00,
2013-01-27 04:13:00,48.6,43.0,29.99,North,0,0.4,0.4,81,0.00,,,0.00,WUHU216HW,2013-01-27 11:13:00,
2013-01-27 04:18:00,48.4,42.9,29.99,North,0,0.4,0.4,81,0.00,,,0.00,WUHU216HW,2013-01-27 11:18:00,
2013-01-27 04:23:00,48.2,42.3,29.99,East,90,0.7,0.7,80,0.00,,,0.00,WUHU216HW,2013-01-27 11:23:00,
2013-01-27 04:28:00,48.2,42.3,29.98,SE,135,1.1,1.1,80,0.00,,,0.00,WUHU216HW,2013-01-27 11:28:00,
2013-01-27 04:33:00,48.2,42.7,29.98,East,90,0.0,1.1,81,0.00,,,0.00,WUHU216HW,2013-01-27 11:33:00,
2013-01-27 04:38:00,48.1,42.5,29.98,East,90,1.1,1.1,81,0.00,,,0.00,WUHU216HW,2013-01-27 11:38:00,
2013-01-27 04:43:00,47.9,42.3,29.98,SE,135,1.3,1.6,81,0.00,,,0.00,WUHU216HW,2013-01-27 11:43:00,
2013-01-27 04:48:00,47.9,42.3,29.98,SE,135,1.8,1.8,81,0.00,,,0.00,WUHU216HW,2013-01-27 11:48:00,
2013-01-27 04:53:00,47.7,42.1,29.98,SE,135,1.1,1.8,81,0.00,,,0.00,WUHU216HW,2013-01-27 11:53:00,
2013-01-27 04:58:00,47.5,41.9,29.99,SE,135,2.5,2.5,81,0.00,,,0.00,WUHU216HW,2013-01-27 11:58:00,
2013-01-27 05:03:00,47.5,41.9,29.99,SSW,203,1.3,3.1,81,0.00,,,0.00,WUHU216HW,2013-01-27 12:03:00,
2013-01-27 05:08:00,47.3,41.8,29.99,SW,225,1.1,3.1,81,0.00,,,0.00,WUHU216HW,2013-01-27 12:08:00,
2013-01-27 05:13:00,47.3,42.1,30.00,South,180,2.7,3.4,82,0.00,,,0.00,WUHU216HW,2013-01-27 12:13:00,
2013-01-27 05:18:00,47.5,42.3,29.99,SSW,203,2.2,3.4,82,0.00,,,0.00,WUHU216HW,2013-01-27 12:18:00,
2013-01-27 05:23:00,47.7,42.5,30.00,South,180,0.4,2.2,82,0.00,,,0.00,WUHU216HW,2013-01-27 12:23:00,
2013-01-27 05:28:00,47.7,42.8,30.00,West,270,0.2,2.2,83,0.00,,,0.00,WUHU216HW,2013-01-27 12:28:00,
2013-01-27 05:33:00,47.5,42.6,30.00,SW,225,0.7,0.7,83,0.00,,,0.00,WUHU216HW,2013-01-27 12:33:00,
2013-01-27 05:38:00,47.3,42.5,30.00,SW,225,0.0,0.7,83,0.00,,,0.00,WUHU216HW,2013-01-27 12:38:00,
2013-01-27 05:43:00,47.2,42.3,30.00,East,90,0.4,0.7,83,0.00,,,0.00,WUHU216HW,2013-01-27 12:43:00,
2013-01-27 05:48:00,47.2,42.3,30.00,SE,135,0.0,0.7,83,0.00,,,0.00,WUHU216HW,2013-01-27 12:48:00,
2013-01-27 05:53:00,47.0,42.1,30.00,SE,135,0.0,0.7,83,0.00,,,0.00,WUHU216HW,2013-01-27 12:53:00,
2013-01-27 05:58:00,46.8,42.0,30.00,SE,135,0.4,0.4,83,0.00,,,0.00,WUHU216HW,2013-01-27 12:58:00,
2013-01-27 06:03:00,46.8,42.0,30.00,West,270,0.7,1.1,83,0.00,,,0.00,WUHU216HW,2013-01-27 13:03:00,
2013-01-27 06:08:00,46.6,41.8,30.00,SW,225,0.7,1.1,83,0.00,,,0.00,WUHU216HW,2013-01-27 13:08:00,
2013-01-27 06:13:00,46.4,41.6,30.00,West,270,0.0,1.1,83,0.00,,,0.00,WUHU216HW,2013-01-27 13:13:00,
2013-01-27 06:18:00,46.4,42.0,30.00,SW,225,0.4,0.4,84,0.00,,,0.00,WUHU216HW,2013-01-27 13:18:00,
2013-01-27 06:23:00,46.4,42.0,30.00,WSW,248,0.4,0.4,84,0.00,,,0.00,WUHU216HW,2013-01-27 13:23:00,
2013-01-27 06:28:00,46.4,42.0,30.00,SSW,203,0.0,0.4,84,0.00,,,0.00,WUHU216HW,2013-01-27 13:28:00,
2013-01-27 06:33:00,46.4,42.0,30.01,SSE,158,0.0,0.4,84,0.00,,,0.00,WUHU216HW,2013-01-27 13:33:00,
2013-01-27 06:38:00,46.4,42.2,30.01,East,90,0.0,0.4,85,0.00,,,0.00,WUHU216HW,2013-01-27 13:38:00,
2013-01-27 06:43:00,46.4,42.2,30.01,East,90,0.2,0.4,85,0.00,,,0.00,WUHU216HW,2013-01-27 13:43:00,
2013-01-27 06:48:00,46.4,42.2,30.01,SE,135,0.0,0.4,85,0.00,,,0.00,WUHU216HW,2013-01-27 13:48:00,
2013-01-27 06:53:00,46.6,42.4,30.01,SSE,158,1.8,1.8,85,0.00,,,0.00,WUHU216HW,2013-01-27 13:53:00,
2013-01-27 06:58:00,46.6,42.4,30.01,SW,225,0.4,1.8,85,0.00,,,0.00,WUHU216HW,2013-01-27 13:58:00,
2013-01-27 07:03:00,46.8,42.6,30.01,East,90,0.4,1.1,85,0.00,,,0.00,WUHU216HW,2013-01-27 14:03:00,
2013-01-27 07:08:00,47.0,42.8,30.01,East,90,0.0,1.1,85,0.00,,,0.00,WUHU216HW,2013-01-27 14:08:00,
2013-01-27 07:13:00,47.0,42.8,30.01,ESE,113,0.4,0.9,85,0.00,,,0.00,WUHU216HW,2013-01-27 14:13:00,
2013-01-27 07:18:00,47.0,42.8,30.01,ESE,113,0.4,0.7,85,0.00,,,0.00,WUHU216HW,2013-01-27 14:18:00,
2013-01-27 07:23:00,47.2,42.9,30.02,SSE,158,1.6,1.6,85,0.00,,,0.00,WUHU216HW,2013-01-27 14:23:00,
2013-01-27 07:28:00,47.2,43.2,30.02,SSE,158,0.4,1.6,86,0.00,,,0.00,WUHU216HW,2013-01-27 14:28:00,
2013-01-27 07:33:00,47.2,43.2,30.02,SSE,158,0.4,1.6,86,0.00,,,0.00,WUHU216HW,2013-01-27 14:33:00,
2013-01-27 07:38:00,47.5,43.6,30.02,SSW,203,1.6,1.8,86,0.00,,,0.00,WUHU216HW,2013-01-27 14:38:00,
2013-01-27 07:43:00,47.5,43.2,30.02,WNW,293,0.4,1.8,85,0.00,,,0.00,WUHU216HW,2013-01-27 14:43:00,
2013-01-27 07:48:00,47.7,43.8,30.02,South,180,0.4,1.3,86,0.00,,,0.00,WUHU216HW,2013-01-27 14:48:00,
2013-01-27 07:53:00,48.1,44.1,30.02,North,0,0.9,1.3,86,0.00,,,0.00,WUHU216HW,2013-01-27 14:53:00,
2013-01-27 07:58:00,48.2,44.3,30.02,NNE,23,0.2,1.1,86,0.00,,,0.00,WUHU216HW,2013-01-27 14:58:00,
2013-01-27 08:03:00,48.6,44.6,30.02,ESE,113,0.0,1.1,86,0.00,,,0.00,WUHU216HW,2013-01-27 15:03:00,
2013-01-27 08:08:00,49.0,44.9,30.02,ESE,113,0.0,0.4,86,0.00,,,0.00,WUHU216HW,2013-01-27 15:08:00,
2013-01-27 08:13:00,49.1,44.8,30.02,SW,225,1.1,1.1,85,0.00,,,0.00,WUHU216HW,2013-01-27 15:13:00,
2013-01-27 08:18:00,49.5,45.1,30.02,SSW,203,0.0,1.1,85,0.00,,,0.00,WUHU216HW,2013-01-27 15:18:00,
2013-01-27 08:23:00,49.9,45.8,30.02,SSW,203,0.0,0.4,86,0.00,,,0.00,WUHU216HW,2013-01-27 15:23:00,
2013-01-27 08:28:00,50.2,46.1,30.02,SE,135,0.0,0.0,86,0.01,,,0.01,WUHU216HW,2013-01-27 15:28:00,
2013-01-27 08:33:00,50.6,46.2,30.03,SE,135,0.0,0.4,85,0.01,,,0.01,WUHU216HW,2013-01-27 15:33:00,
2013-01-27 08:38:00,50.8,46.4,30.03,SE,135,0.0,0.4,85,0.01,,,0.01,WUHU216HW,2013-01-27 15:38:00,
2013-01-27 08:43:00,51.1,46.5,30.03,SE,135,0.2,0.4,84,0.01,,,0.01,WUHU216HW,2013-01-27 15:43:00,
2013-01-27 08:48:00,51.5,46.8,30.03,SE,135,1.1,1.1,84,0.01,,,0.01,WUHU216HW,2013-01-27 15:48:00,
2013-01-27 08:53:00,51.8,47.2,30.03,SE,135,0.7,1.1,84,0.01,,,0.01,WUHU216HW,2013-01-27 15:53:00,
2013-01-27 08:58:00,52.2,47.2,30.03,ESE,113,0.4,1.1,83,0.01,,,0.01,WUHU216HW,2013-01-27 15:58:00,
2013-01-27 09:03:00,52.6,47.3,30.03,SE,135,1.1,1.1,82,0.01,,,0.01,WUHU216HW,2013-01-27 16:03:00,
2013-01-27 09:08:00,52.9,47.6,30.03,ESE,113,0.4,1.3,82,0.01,,,0.01,WUHU216HW,2013-01-27 16:08:00,
2013-01-27 09:13:00,53.5,48.2,30.03,SSE,158,0.7,1.8,82,0.01,,,0.01,WUHU216HW,2013-01-27 16:13:00,
2013-01-27 09:18:00,54.4,48.7,30.04,ESE,113,0.9,1.8,81,0.01,,,0.01,WUHU216HW,2013-01-27 16:18:00,
2013-01-27 09:23:00,55.1,49.0,30.04,SE,135,0.4,1.8,80,0.01,,,0.01,WUHU216HW,2013-01-27 16:23:00,
2013-01-27 09:28:00,55.8,49.7,30.04,SSE,158,1.1,1.1,80,0.00,,,0.01,WUHU216HW,2013-01-27 16:28:00,
2013-01-27 09:33:00,56.2,49.7,30.04,ESE,113,0.4,1.3,79,0.00,,,0.01,WUHU216HW,2013-01-27 16:33:00,
2013-01-27 09:38:00,56.3,49.5,30.04,SE,135,0.4,1.3,78,0.00,,,0.01,WUHU216HW,2013-01-27 16:38:00,
2013-01-27 09:43:00,56.5,49.7,30.04,West,270,0.2,1.3,78,0.00,,,0.01,WUHU216HW,2013-01-27 16:43:00,
2013-01-27 09:48:00,56.7,49.1,30.04,North,0,0.2,1.1,76,0.00,,,0.01,WUHU216HW,2013-01-27 16:48:00,
2013-01-27 09:53:00,56.9,49.3,30.04,South,180,1.1,1.1,76,0.00,,,0.01,WUHU216HW,2013-01-27 16:53:00,
2013-01-27 09:58:00,57.2,49.3,30.04,WSW,248,0.4,1.1,75,0.00,,,0.01,WUHU216HW,2013-01-27 16:58:00,
2013-01-27 10:03:00,57.6,49.3,30.04,South,180,0.7,1.1,74,0.00,,,0.01,WUHU216HW,2013-01-27 17:03:00,
2013-01-27 10:08:00,58.3,50.0,30.04,West,270,0.7,1.3,74,0.00,,,0.01,WUHU216HW,2013-01-27 17:08:00,
2013-01-27 10:13:00,58.5,49.1,30.04,NNE,23,1.8,1.8,71,0.00,,,0.01,WUHU216HW,2013-01-27 17:13:00,
2013-01-27 10:18:00,58.5,49.1,30.04,SSE,158,0.4,2.7,71,0.00,,,0.01,WUHU216HW,2013-01-27 17:18:00,
2013-01-27 10:23:00,58.7,49.0,30.04,SSW,203,0.9,2.7,70,0.00,,,0.01,WUHU216HW,2013-01-27 17:23:00,
2013-01-27 10:28:00,58.7,48.5,30.04,SSW,203,0.9,2.5,69,0.00,,,0.01,WUHU216HW,2013-01-27 17:28:00,
2013-01-27 10:33:00,59.4,49.2,30.05,SE,135,3.1,3.1,69,0.00,,,0.01,WUHU216HW,2013-01-27 17:33:00,
2013-01-27 10:38:00,59.6,48.3,30.05,WSW,248,6.3,6.3,66,0.00,,,0.01,WUHU216HW,2013-01-27 17:38:00,
2013-01-27 10:43:00,59.6,47.8,30.04,West,270,4.0,6.3,65,0.00,,,0.01,WUHU216HW,2013-01-27 17:43:00,
2013-01-27 10:48:00,59.8,48.0,30.04,West,270,3.1,4.7,65,0.00,,,0.01,WUHU216HW,2013-01-27 17:48:00,
2013-01-27 10:53:00,59.9,47.7,30.04,NNE,23,1.6,4.3,64,0.00,,,0.01,WUHU216HW,2013-01-27 17:53:00,
2013-01-27 10:58:00,59.8,46.7,30.04,West,270,4.9,4.9,62,0.00,,,0.01,WUHU216HW,2013-01-27 17:58:00,
2013-01-27 11:03:00,60.1,46.7,30.04,WSW,248,2.0,4.9,61,0.00,,,0.01,WUHU216HW,2013-01-27 18:03:00,
2013-01-27 11:08:00,60.5,46.6,30.04,SSW,203,3.4,6.5,60,0.00,,,0.01,WUHU216HW,2013-01-27 18:08:00,
2013-01-27 11:13:00,61.0,46.6,30.04,WSW,248,2.7,6.5,59,0.00,,,0.01,WUHU216HW,2013-01-27 18:13:00,
2013-01-27 11:18:00,61.2,45.4,30.04,SSW,203,6.3,7.2,56,0.00,,,0.01,WUHU216HW,2013-01-27 18:18:00,
2013-01-27 11:23:00,61.6,45.7,30.03,WSW,248,6.9,7.6,56,0.00,,,0.01,WUHU216HW,2013-01-27 18:23:00,
2013-01-27 11:28:00,61.9,46.0,30.03,South,180,1.3,7.6,56,0.00,,,0.01,WUHU216HW,2013-01-27 18:28:00,
2013-01-27 11:33:00,62.5,47.0,30.03,SSW,203,4.3,6.5,57,0.00,,,0.01,WUHU216HW,2013-01-27 18:33:00,
2013-01-27 11:38:00,63.0,45.6,30.03,SSW,203,6.0,9.6,53,0.00,,,0.01,WUHU216HW,2013-01-27 18:38:00,
2013-01-27 11:43:00,63.5,45.0,30.02,SW,225,6.0,9.6,51,0.00,,,0.01,WUHU216HW,2013-01-27 18:43:00,
2013-01-27 11:48:00,63.4,43.8,30.02,WSW,248,7.6,10.5,49,0.00,,,0.01,WUHU216HW,2013-01-27 18:48:00,
2013-01-27 11:53:00,64.1,45.0,30.02,WNW,293,6.0,10.5,50,0.00,,,0.01,WUHU216HW,2013-01-27 18:53:00,
2013-01-27 11:58:00,64.4,45.4,30.02,South,180,3.8,8.7,50,0.00,,,0.01,WUHU216HW,2013-01-27 18:58:00,
2013-01-27 12:03:00,64.4,43.7,30.01,SW,225,4.7,10.5,47,0.00,,,0.01,WUHU216HW,2013-01-27 19:03:00,
2013-01-27 12:08:00,64.4,43.0,30.01,WSW,248,12.1,12.1,46,0.00,,,0.01,WUHU216HW,2013-01-27 19:08:00,
2013-01-27 12:13:00,64.1,43.3,30.01,West,270,9.2,12.1,47,0.00,,,0.01,WUHU216HW,2013-01-27 19:13:00,
2013-01-27 12:18:00,63.7,43.6,30.01,WSW,248,7.6,10.7,48,0.00,,,0.01,WUHU216HW,2013-01-27 19:18:00,
2013-01-27 12:23:00,63.9,43.1,30.00,WSW,248,7.8,10.7,47,0.00,,,0.01,WUHU216HW,2013-01-27 19:23:00,
2013-01-27 12:28:00,63.9,43.1,30.00,SW,225,4.7,14.8,47,0.00,,,0.01,WUHU216HW,2013-01-27 19:28:00,
2013-01-27 12:33:00,63.7,43.6,30.00,SW,225,10.7,14.8,48,0.00,,,0.01,WUHU216HW,2013-01-27 19:33:00,
2013-01-27 12:38:00,63.9,43.1,30.00,WSW,248,9.6,12.8,47,0.00,,,0.01,WUHU216HW,2013-01-27 19:38:00,
2013-01-27 12:43:00,64.3,43.5,29.99,SW,225,3.6,9.6,47,0.00,,,0.01,WUHU216HW,2013-01-27 19:43:00,
2013-01-27 12:48:00,64.1,43.9,29.99,WSW,248,9.2,9.8,48,0.00,,,0.01,WUHU216HW,2013-01-27 19:48:00,
2013-01-27 12:53:00,64.4,44.2,29.99,North,0,3.8,9.8,48,0.00,,,0.01,WUHU216HW,2013-01-27 19:53:00,
2013-01-27 12:58:00,64.6,43.2,29.99,West,270,6.5,8.5,46,0.00,,,0.01,WUHU216HW,2013-01-27 19:58:00,
2013-01-27 13:03:00,64.8,44.0,29.99,SW,225,10.7,13.4,47,0.00,,,0.01,WUHU216HW,2013-01-27 20:03:00,
2013-01-27 13:08:00,65.2,44.4,29.99,SSW,203,4.0,13.4,47,0.00,,,0.01,WUHU216HW,2013-01-27 20:08:00,
2013-01-27 13:13:00,65.9,45.6,29.99,SW,225,4.3,9.8,48,0.00,,,0.01,WUHU216HW,2013-01-27 20:13:00,
2013-01-27 13:18:00,65.9,43.8,29.99,WSW,248,10.5,10.5,45,0.00,,,0.01,WUHU216HW,2013-01-27 20:18:00,
2013-01-27 13:23:00,65.2,43.7,29.98,WSW,248,2.5,10.5,46,0.00,,,0.01,WUHU216HW,2013-01-27 20:23:00,
2013-01-27 13:28:00,64.8,43.4,29.98,WSW,248,8.3,9.8,46,0.00,,,0.01,WUHU216HW,2013-01-27 20:28:00,
2013-01-27 13:33:00,64.4,44.2,29.98,WNW,293,2.9,9.8,48,0.00,,,0.01,WUHU216HW,2013-01-27 20:33:00,
2013-01-27 13:38:00,64.4,44.2,29.98,West,270,5.4,6.3,48,0.00,,,0.01,WUHU216HW,2013-01-27 20:38:00,
2013-01-27 13:43:00,64.6,44.4,29.97,South,180,3.4,7.6,48,0.00,,,0.01,WUHU216HW,2013-01-27 20:43:00,
2013-01-27 13:48:00,65.3,45.1,29.97,SW,225,5.1,7.6,48,0.00,,,0.01,WUHU216HW,2013-01-27 20:48:00,
2013-01-27 13:53:00,65.2,43.2,29.97,NW,315,2.7,7.6,45,0.00,,,0.01,WUHU216HW,2013-01-27 20:53:00,
2013-01-27 13:58:00,65.2,43.7,29.97,WSW,248,6.9,7.8,46,0.00,,,0.01,WUHU216HW,2013-01-27 20:58:00,
2013-01-27 14:03:00,64.8,43.4,29.97,WSW,248,4.7,9.6,46,0.00,,,0.01,WUHU216HW,2013-01-27 21:03:00,
2013-01-27 14:08:00,65.0,44.2,29.97,West,270,6.3,9.6,47,0.00,,,0.01,WUHU216HW,2013-01-27 21:08:00,
2013-01-27 14:13:00,64.8,42.9,29.97,SW,225,9.8,10.1,45,0.00,,,0.01,WUHU216HW,2013-01-27 21:13:00,
2013-01-27 14:18:00,64.1,42.8,29.97,West,270,9.2,12.5,46,0.00,,,0.01,WUHU216HW,2013-01-27 21:18:00,
2013-01-27 14:23:00,63.9,43.1,29.97,WNW,293,6.9,12.5,47,0.00,,,0.01,WUHU216HW,2013-01-27 21:23:00,
2013-01-27 14:28:00,63.7,43.0,29.97,WSW,248,3.8,8.3,47,0.00,,,0.01,WUHU216HW,2013-01-27 21:28:00,
2013-01-27 14:33:00,63.7,43.0,29.97,SW,225,6.3,8.9,47,0.00,,,0.01,WUHU216HW,2013-01-27 21:33:00,
2013-01-27 14:38:00,63.5,42.2,29.96,SW,225,11.9,11.9,46,0.00,,,0.01,WUHU216HW,2013-01-27 21:38:00,
2013-01-27 14:43:00,63.7,43.0,29.97,SSW,203,6.7,11.9,47,0.00,,,0.01,WUHU216HW,2013-01-27 21:43:00,
2013-01-27 14:48:00,63.7,43.0,29.96,WSW,248,7.6,8.7,47,0.00,,,0.01,WUHU216HW,2013-01-27 21:48:00,
2013-01-27 14:53:00,64.3,43.5,29.96,SW,225,5.8,7.6,47,0.00,,,0.01,WUHU216HW,2013-01-27 21:53:00,
2013-01-27 14:58:00,64.4,42.5,29.96,WSW,248,7.6,13.4,45,0.00,,,0.01,WUHU216HW,2013-01-27 21:58:00,
2013-01-27 15:03:00,64.3,41.8,29.96,West,270,8.5,13.4,44,0.00,,,0.01,WUHU216HW,2013-01-27 22:03:00,
2013-01-27 15:08:00,64.6,42.0,29.97,WNW,293,8.5,12.1,44,0.00,,,0.01,WUHU216HW,2013-01-27 22:08:00,
2013-01-27 15:13:00,64.4,42.0,29.96,WSW,248,11.4,12.1,44,0.00,,,0.01,WUHU216HW,2013-01-27 22:13:00,
2013-01-27 15:18:00,64.1,42.1,29.96,WSW,248,7.8,11.4,45,0.00,,,0.01,WUHU216HW,2013-01-27 22:18:00,
2013-01-27 15:23:00,63.9,42.0,29.96,SW,225,6.3,11.2,45,0.00,,,0.01,WUHU216HW,2013-01-27 22:23:00,
2013-01-27 15:28:00,64.1,42.1,29.96,WSW,248,4.9,11.2,45,0.00,,,0.01,WUHU216HW,2013-01-27 22:28:00,
2013-01-27 15:33:00,64.3,41.8,29.96,WSW,248,5.4,8.3,44,0.00,,,0.01,WUHU216HW,2013-01-27 22:33:00,
2013-01-27 15:38:00,64.4,42.5,29.96,SW,225,4.0,9.4,45,0.00,,,0.01,WUHU216HW,2013-01-27 22:38:00,
2013-01-27 15:43:00,64.8,42.2,29.96,WSW,248,7.2,9.4,44,0.00,,,0.01,WUHU216HW,2013-01-27 22:43:00,
2013-01-27 15:48:00,65.3,42.2,29.96,South,180,7.6,8.5,43,0.00,,,0.01,WUHU216HW,2013-01-27 22:48:00,
2013-01-27 15:53:00,65.5,42.3,29.96,WSW,248,9.4,10.5,43,0.00,,,0.01,WUHU216HW,2013-01-27 22:53:00,
2013-01-27 15:58:00,65.2,42.6,29.96,WSW,248,6.7,10.5,44,0.00,,,0.01,WUHU216HW,2013-01-27 22:58:00,
2013-01-27 16:03:00,65.2,42.6,29.96,SW,225,3.6,10.5,44,0.00,,,0.01,WUHU216HW,2013-01-27 23:03:00,
2013-01-27 16:08:00,65.2,42.0,29.96,SW,225,5.8,9.8,43,0.00,,,0.01,WUHU216HW,2013-01-27 23:08:00,
2013-01-27 16:13:00,64.8,42.2,29.96,WNW,293,4.7,9.8,44,0.00,,,0.01,WUHU216HW,2013-01-27 23:13:00,
2013-01-27 16:18:00,64.4,42.0,29.95,West,270,9.4,9.4,44,0.00,,,0.01,WUHU216HW,2013-01-27 23:18:00,
2013-01-27 16:23:00,64.3,42.3,29.96,SW,225,5.8,9.4,45,0.00,,,0.01,WUHU216HW,2013-01-27 23:23:00,
2013-01-27 16:28:00,64.1,42.1,29.95,WSW,248,3.4,8.5,45,0.00,,,0.01,WUHU216HW,2013-01-27 23:28:00,
2013-01-27 16:33:00,63.7,41.9,29.96,SW,225,4.7,8.5,45,0.00,,,0.01,WUHU216HW,2013-01-27 23:33:00,
2013-01-27 16:38:00,63.4,42.1,29.96,WSW,248,0.9,6.3,46,0.00,,,0.01,WUHU216HW,2013-01-27 23:38:00,
2013-01-27 16:43:00,63.4,42.1,29.96,WSW,248,2.7,4.7,46,0.00,,,0.01,WUHU216HW,2013-01-27 23:43:00,
2013-01-27 16:48:00,63.4,42.1,29.96,SSW,203,1.8,2.9,46,0.00,,,0.01,WUHU216HW,2013-01-27 23:48:00,
2013-01-27 16:53:00,63.7,43.0,29.96,SW,225,4.3,4.3,47,0.00,,,0.01,WUHU216HW,2013-01-27 23:53:00,
2013-01-27 16:58:00,63.7,42.4,29.96,WSW,248,3.8,4.3,46,0.00,,,0.01,WUHU216HW,2013-01-27 23:58:00,
2013-01-27 17:03:00,63.4,42.1,29.96,NW,315,2.5,5.4,46,0.00,,,0.01,WUHU216HW,2013-01-28 00:03:00,
2013-01-27 17:08:00,63.0,41.8,29.96,WSW,248,2.5,5.6,46,0.00,,,0.01,WUHU216HW,2013-01-28 00:08:00,
2013-01-27 17:13:00,62.8,42.2,29.96,WSW,248,1.1,5.6,47,0.00,,,0.01,WUHU216HW,2013-01-28 00:13:00,
2013-01-27 17:18:00,62.6,42.0,29.96,SW,225,3.8,5.6,47,0.00,,,0.01,WUHU216HW,2013-01-28 00:18:00,
2013-01-27 17:23:00,62.6,42.0,29.95,SW,225,4.0,5.6,47,0.00,,,0.01,WUHU216HW,2013-01-28 00:23:00,
2013-01-27 17:28:00,62.3,41.7,29.95,SW,225,1.3,4.5,47,0.00,,,0.01,WUHU216HW,2013-01-28 00:28:00,
2013-01-27 17:33:00,62.1,41.5,29.95,SW,225,2.5,3.1,47,0.00,,,0.01,WUHU216HW,2013-01-28 00:33:00,
2013-01-27 17:38:00,61.7,41.8,29.96,West,270,1.6,2.7,48,0.00,,,0.01,WUHU216HW,2013-01-28 00:38:00,
2013-01-27 17:43:00,61.4,41.5,29.96,West,270,1.6,3.8,48,0.00,,,0.01,WUHU216HW,2013-01-28 00:43:00,
2013-01-27 17:48:00,61.0,41.1,29.96,West,270,2.0,3.8,48,0.00,,,0.01,WUHU216HW,2013-01-28 00:48:00,
2013-01-27 17:53:00,60.8,41.6,29.96,WSW,248,1.6,2.2,49,0.00,,,0.01,WUHU216HW,2013-01-28 00:53:00,
2013-01-27 17:58:00,60.5,41.2,29.96,WSW,248,1.1,2.0,49,0.00,,,0.01,WUHU216HW,2013-01-28 00:58:00,
2013-01-27 18:03:00,60.1,40.9,29.96,WSW,248,1.3,1.3,49,0.00,,,0.01,WUHU216HW,2013-01-28 01:03:00,
2013-01-27 18:08:00,59.6,41.0,29.96,WSW,248,1.1,1.3,50,0.00,,,0.01,WUHU216HW,2013-01-28 01:08:00,
2013-01-27 18:13:00,59.2,40.7,29.96,SW,225,1.6,1.6,50,0.00,,,0.01,WUHU216HW,2013-01-28 01:13:00,
2013-01-27 18:18:00,58.9,40.8,29.96,SW,225,0.9,1.6,51,0.00,,,0.01,WUHU216HW,2013-01-28 01:18:00,
2013-01-27 18:23:00,58.5,40.5,29.96,SW,225,0.9,1.3,51,0.00,,,0.01,WUHU216HW,2013-01-28 01:23:00,
2013-01-27 18:28:00,58.3,40.3,29.96,South,180,0.7,1.1,51,0.00,,,0.01,WUHU216HW,2013-01-28 01:28:00,
2013-01-27 18:33:00,58.0,40.5,29.96,SSW,203,1.1,1.3,52,0.00,,,0.01,WUHU216HW,2013-01-28 01:33:00,
2013-01-27 18:38:00,57.8,40.3,29.96,SSE,158,0.2,1.3,52,0.00,,,0.01,WUHU216HW,2013-01-28 01:38:00,
2013-01-27 18:43:00,57.4,40.0,29.96,ESE,113,0.4,1.6,52,0.00,,,0.01,WUHU216HW,2013-01-28 01:43:00,
2013-01-27 18:48:00,57.2,40.3,29.96,ESE,113,0.4,1.6,53,0.00,,,0.01,WUHU216HW,2013-01-28 01:48:00,
2013-01-27 18:53:00,56.9,40.0,29.97,ESE,113,1.1,3.1,53,0.00,,,0.01,WUHU216HW,2013-01-28 01:53:00,
2013-01-27 18:58:00,56.5,39.6,29.97,ESE,113,1.1,3.1,53,0.00,,,0.01,WUHU216HW,2013-01-28 01:58:00,
2013-01-27 19:03:00,56.2,39.7,29.97,SSE,158,2.7,2.7,54,0.00,,,0.01,WUHU216HW,2013-01-28 02:03:00,
2013-01-27 19:08:00,55.8,38.9,29.97,SE,135,1.3,2.9,53,0.00,,,0.01,WUHU216HW,2013-01-28 02:08:00,
2013-01-27 19:13:00,55.6,38.7,29.97,SE,135,0.0,2.9,53,0.00,,,0.01,WUHU216HW,2013-01-28 02:13:00,
2013-01-27 19:18:00,55.3,38.8,29.97,SSE,158,0.0,1.1,54,0.00,,,0.01,WUHU216HW,2013-01-28 02:18:00,
2013-01-27 19:23:00,55.1,38.6,29.97,SSE,158,0.0,1.1,54,0.00,,,0.01,WUHU216HW,2013-01-28 02:23:00,
2013-01-27 19:28:00,54.7,38.4,29.97,SE,135,0.7,0.7,54,0.00,,,0.01,WUHU216HW,2013-01-28 02:28:00,
2013-01-27 19:33:00,54.4,38.4,29.97,SSE,158,1.6,1.6,55,0.00,,,0.01,WUHU216HW,2013-01-28 02:33:00,
2013-01-27 19:38:00,54.2,38.3,29.97,SE,135,0.4,2.5,55,0.00,,,0.01,WUHU216HW,2013-01-28 02:38:00,
2013-01-27 19:43:00,54.0,38.2,29.97,West,270,0.4,2.5,55,0.00,,,0.01,WUHU216HW,2013-01-28 02:43:00,
2013-01-27 19:48:00,53.6,38.3,29.97,SW,225,1.6,1.6,56,0.00,,,0.01,WUHU216HW,2013-01-28 02:48:00,
2013-01-27 19:53:00,53.3,37.9,29.97,SW,225,1.6,1.6,56,0.00,,,0.01,WUHU216HW,2013-01-28 02:53:00,
2013-01-27 19:58:00,52.9,38.1,29.97,SW,225,1.3,1.8,57,0.00,,,0.01,WUHU216HW,2013-01-28 02:58:00,
2013-01-27 20:03:00,52.7,37.9,29.97,SW,225,0.4,1.8,57,0.00,,,0.01,WUHU216HW,2013-01-28 03:03:00,
2013-01-27 20:08:00,52.6,38.2,29.97,SW,225,1.1,1.1,58,0.00,,,0.01,WUHU216HW,2013-01-28 03:08:00,
2013-01-27 20:13:00,52.4,38.0,29.97,SW,225,1.1,1.1,58,0.00,,,0.01,WUHU216HW,2013-01-28 03:13:00,
2013-01-27 20:18:00,52.2,37.8,29.97,West,270,0.2,1.1,58,0.00,,,0.01,WUHU216HW,2013-01-28 03:18:00,
2013-01-27 20:23:00,51.8,37.9,29.97,NNW,338,0.7,1.1,59,0.00,,,0.01,WUHU216HW,2013-01-28 03:23:00,
2013-01-27 20:28:00,51.8,37.9,29.97,NNW,338,0.2,1.1,59,0.00,,,0.01,WUHU216HW,2013-01-28 03:28:00,
2013-01-27 20:33:00,51.7,37.7,29.97,NNW,338,0.0,0.7,59,0.00,,,0.01,WUHU216HW,2013-01-28 03:33:00,
2013-01-27 20:38:00,51.5,37.5,29.97,SSW,203,1.8,1.8,59,0.00,,,0.01,WUHU216HW,2013-01-28 03:38:00,
2013-01-27 20:43:00,51.5,37.5,29.97,SW,225,1.1,1.8,59,0.00,,,0.01,WUHU216HW,2013-01-28 03:43:00,
2013-01-27 20:48:00,51.3,37.9,29.97,WSW,248,0.0,1.8,60,0.00,,,0.01,WUHU216HW,2013-01-28 03:48:00,
2013-01-27 20:53:00,51.1,37.7,29.97,North,0,0.7,1.1,60,0.00,,,0.01,WUHU216HW,2013-01-28 03:53:00,
2013-01-27 20:58:00,50.9,37.5,29.97,WNW,293,0.4,1.1,60,0.00,,,0.01,WUHU216HW,2013-01-28 03:58:00,
2013-01-27 21:03:00,50.8,37.4,29.97,West,270,1.3,1.3,60,0.00,,,0.01,WUHU216HW,2013-01-28 04:03:00,
2013-01-27 21:08:00,50.4,37.8,29.97,WSW,248,2.0,2.5,62,0.00,,,0.01,WUHU216HW,2013-01-28 04:08:00,
2013-01-27 21:13:00,50.4,37.8,29.97,WSW,248,1.1,2.5,62,0.00,,,0.01,WUHU216HW,2013-01-28 04:13:00,
2013-01-27 21:18:00,50.2,37.7,29.97,West,270,0.0,1.3,62,0.00,,,0.01,WUHU216HW,2013-01-28 04:18:00,
2013-01-27 21:23:00,50.0,37.5,29.97,NNE,23,0.4,1.3,62,0.00,,,0.01,WUHU216HW,2013-01-28 04:23:00,
2013-01-27 21:28:00,49.9,37.4,29.97,East,90,0.2,0.7,62,0.00,,,0.01,WUHU216HW,2013-01-28 04:28:00,
2013-01-27 21:33:00,49.9,37.4,29.97,South,180,0.7,1.1,62,0.00,,,0.01,WUHU216HW,2013-01-28 04:33:00,
2013-01-27 21:38:00,49.7,37.2,29.97,SE,135,0.7,1.3,62,0.00,,,0.01,WUHU216HW,2013-01-28 04:38:00,
2013-01-27 21:43:00,49.3,36.8,29.97,SSE,158,0.4,1.3,62,0.00,,,0.01,WUHU216HW,2013-01-28 04:43:00,
2013-01-27 21:48:00,49.0,36.6,29.97,SW,225,1.6,1.8,62,0.00,,,0.01,WUHU216HW,2013-01-28 04:48:00,
2013-01-27 21:53:00,48.8,36.4,29.97,WSW,248,1.6,1.8,62,0.00,,,0.01,WUHU216HW,2013-01-28 04:53:00,
2013-01-27 21:58:00,48.4,36.0,29.97,SW,225,1.3,1.8,62,0.00,,,0.01,WUHU216HW,2013-01-28 04:58:00,
2013-01-27 22:00:00,48.4,36.4,29.97,SW,225,1.8,1.8,63,0.00,,,0.01,WUHU216HW,2013-01-28 05:00:00,
2013-01-27 22:03:00,48.2,36.3,29.97,WSW,248,1.3,1.8,63,0.00,,,0.01,WUHU216HW,2013-01-28 05:03:00,
2013-01-27 22:08:00,48.1,36.1,29.97,SW,225,0.9,1.8,63,0.00,,,0.01,WUHU216HW,2013-01-28 05:08:00,
2013-01-27 22:13:00,48.1,36.5,29.97,NNE,23,0.4,0.9,64,0.00,,,0.01,WUHU216HW,2013-01-28 05:13:00,
2013-01-27 22:18:00,47.9,36.3,29.97,NNE,23,0.2,0.4,64,0.00,,,0.01,WUHU216HW,2013-01-28 05:18:00,
2013-01-27 22:23:00,47.9,36.3,29.97,NNE,23,0.0,0.4,64,0.00,,,0.01,WUHU216HW,2013-01-28 05:23:00,
2013-01-27 22:28:00,47.5,35.9,29.98,SW,225,1.1,1.1,64,0.00,,,0.01,WUHU216HW,2013-01-28 05:28:00,
2013-01-27 22:33:00,47.3,35.7,29.98,SW,225,1.1,1.1,64,0.00,,,0.01,WUHU216HW,2013-01-28 05:33:00,
2013-01-27 22:38:00,47.2,35.6,29.97,WSW,248,1.3,2.0,64,0.00,,,0.01,WUHU216HW,2013-01-28 05:38:00,
2013-01-27 22:43:00,47.0,35.8,29.97,SW,225,2.0,2.0,65,0.00,,,0.01,WUHU216HW,2013-01-28 05:43:00,
2013-01-27 22:48:00,46.8,36.0,29.97,SW,225,1.8,2.2,66,0.00,,,0.01,WUHU216HW,2013-01-28 05:48:00,
2013-01-27 22:53:00,46.6,35.8,29.97,SW,225,1.3,2.2,66,0.00,,,0.01,WUHU216HW,2013-01-28 05:53:00,
2013-01-27 22:58:00,46.6,35.8,29.97,SSW,203,2.5,2.5,66,0.00,,,0.01,WUHU216HW,2013-01-28 05:58:00,
2013-01-27 23:03:00,46.4,36.1,29.97,SW,225,1.1,2.5,67,0.00,,,0.01,WUHU216HW,2013-01-28 06:03:00,
2013-01-27 23:08:00,46.4,36.1,29.97,NNE,23,0.7,2.0,67,0.00,,,0.01,WUHU216HW,2013-01-28 06:08:00,
2013-01-27 23:13:00,46.4,36.1,29.97,NNE,23,0.0,1.1,67,0.00,,,0.01,WUHU216HW,2013-01-28 06:13:00,
2013-01-27 23:18:00,46.4,36.1,29.97,ESE,113,0.7,0.7,67,0.00,,,0.01,WUHU216HW,2013-01-28 06:18:00,
2013-01-27 23:23:00,46.1,35.7,29.97,WSW,248,0.7,0.9,67,0.00,,,0.01,WUHU216HW,2013-01-28 06:23:00,
2013-01-27 23:28:00,45.9,35.6,29.97,SW,225,0.9,1.1,67,0.00,,,0.01,WUHU216HW,2013-01-28 06:28:00,
2013-01-27 23:33:00,45.7,35.7,29.97,SW,225,0.9,1.1,68,0.00,,,0.01,WUHU216HW,2013-01-28 06:33:00,
2013-01-27 23:38:00,45.9,35.9,29.97,SW,225,0.4,1.1,68,0.00,,,0.01,WUHU216HW,2013-01-28 06:38:00,
2013-01-27 23:43:00,45.9,35.9,29.97,South,180,0.4,1.1,68,0.00,,,0.01,WUHU216HW,2013-01-28 06:43:00,
2013-01-27 23:48:00,45.9,35.9,29.97,SSW,203,1.6,1.8,68,0.00,,,0.01,WUHU216HW,2013-01-28 06:48:00,
2013-01-27 23:53:00,45.9,36.4,29.97,WSW,248,0.4,1.8,69,0.00,,,0.01,WUHU216HW,2013-01-28 06:53:00,
2013-01-27 23:58:00,45.9,36.4,29.97,SSW,203,0.7,1.8,69,0.00,,,0.01,WUHU216HW,2013-01-28 06:58:00,